Date,TemperatureHighF,TemperatureAvgF,TemperatureLowF,DewpointHighF,DewpointAvgF,DewpointLowF,HumidityHigh,HumidityAvg,HumidityLow,PressureMaxIn,PressureMinIn,WindSpeedMaxMPH,WindSpeedAvgMPH,GustSpeedMaxMPH,PrecipitationSumIn
2013-1-1,39,36,27,29,24,11,76,62,50,30.01,29.83,20,6,24,0.00
2013-1-2,33,26,22,15,12,9,62,55,45,30.18,29.99,21,5,21,0.00
2013-1-3,32,27,23,18,15,13,69,59,50,30.20,30.07,12,3,17,0.00
2013-1-4,36,33,28,22,20,17,66,59,53,30.09,29.96,27,7,31,0.00
2013-1-5,43,34,29,23,20,17,68,56,43,30.29,30.02,18,4,21,0.00
2013-1-6,46,38,31,31,27,21,87,65,47,30.22,29.96,16,4,20,0.00
2013-1-7,45,37,26,29,24,19,75,61,42,30.40,30.05,22,2,22,0.00
2013-1-8,49,36,25,33,26,19,83,69,50,30.42,30.33,15,2,16,0.00
2013-1-9,48,39,28,37,31,24,85,73,59,30.38,30.13,17,3,20,0.00
2013-1-10,49,42,36,32,26,24,62,54,38,30.53,30.24,18,4,21,0.00
2013-1-11,46,40,34,43,32,23,93,74,57,30.53,30.07,12,2,13,0.53
2013-1-12,48,45,42,44,42,40,94,90,85,30.16,30.06,7,1,8,0.01
2013-1-13,48,45,43,47,44,42,96,94,91,30.15,29.99,6,1,7,0.01
2013-1-14,56,49,39,54,43,26,96,80,45,30.28,29.88,15,3,17,0.08
2013-1-15,39,37,34,33,28,25,84,72,61,30.34,30.20,11,2,11,0.16
2013-1-16,36,33,32,33,31,28,92,90,81,30.20,29.80,15,3,15,0.82
2013-1-17,42,38,35,32,29,23,86,70,55,30.08,29.90,17,4,18,0.00
2013-1-18,35,29,25,24,13,5,65,51,35,30.48,29.98,22,5,24,0.00
2013-1-19,51,39,25,28,23,11,69,53,38,30.40,29.92,22,6,26,0.00
2013-1-20,54,42,29,31,22,10,67,47,25,30.04,29.69,40,10,44,0.00
2013-1-21,30,28,21,15,10,7,62,49,41,30.09,29.84,18,3,18,0.00
2013-1-22,26,18,12,9,-1,-7,52,42,31,30.21,29.84,33,12,35,0.00
2013-1-23,19,13,9,2,-4,-9,68,47,38,30.26,30.17,23,7,26,0.00
2013-1-24,24,15,6,5,0,-5,79,53,31,30.42,30.12,26,6,28,0.00
2013-1-25,22,16,11,13,3,-5,82,58,41,30.43,30.06,15,3,17,0.00
2013-1-26,27,18,10,9,7,5,82,62,42,30.39,30.05,19,5,22,0.00
2013-1-27,34,24,12,13,9,4,70,54,38,30.53,30.38,18,3,19,0.00
2013-1-28,34,29,21,31,23,11,90,78,62,30.49,30.00,10,2,11,0.14
2013-1-29,54,41,34,43,37,31,90,84,65,30.13,30.00,11,2,12,0.00
2013-1-30,68,53,41,60,49,39,95,87,74,30.06,29.33,22,3,26,0.01
2013-1-31,62,44,28,58,30,10,88,59,39,29.80,29.03,48,15,54,1.25
2013-2-1,30,26,22,18,11,4,77,52,32,30.25,29.80,20,8,33,0.00
2013-2-2,28,23,16,18,8,4,82,54,37,30.31,30.04,19,5,23,0.00
2013-2-3,30,25,23,20,18,15,84,74,60,30.04,29.79,15,2,15,0.02
2013-2-4,29,25,21,19,11,8,73,54,41,29.99,29.81,26,8,28,0.00
2013-2-5,27,26,25,23,21,18,84,80,73,29.95,29.90,6,1,7,0.00
2013-2-6,38,33,26,27,18,9,89,57,44,30.35,29.91,25,5,25,0.02
2013-2-7,32,28,20,22,12,6,66,52,41,30.50,30.30,11,3,13,0.00
2013-2-8,35,32,28,30,27,22,90,82,66,30.30,29.64,24,7,28,0.52
2013-2-9,33,27,20,27,16,5,92,65,37,30.35,29.75,30,9,34,0.12
2013-2-10,37,25,10,19,11,4,77,56,27,30.49,30.31,10,1,13,0.20
2013-2-11,43,36,29,42,32,19,94,86,67,30.32,29.65,10,0,12,0.34
2013-2-12,43,40,32,39,27,22,94,62,49,29.97,29.73,24,8,31,0.00
2013-2-13,42,32,24,30,24,18,87,72,52,29.95,29.67,7,1,9,0.02
2013-2-14,45,37,32,33,28,23,91,72,44,29.99,29.70,14,2,15,0.06
2013-2-15,55,42,31,34,30,26,85,65,42,30.02,29.90,19,3,19,0.00
2013-2-16,40,35,29,31,25,12,87,67,48,29.96,29.74,15,4,17,0.04
2013-2-17,30,26,18,12,5,0,52,41,32,30.03,29.68,35,12,38,0.00
2013-2-18,34,22,16,13,4,0,51,45,34,30.26,30.02,32,9,32,0.00
2013-2-19,48,36,23,41,27,12,87,69,49,30.19,29.68,26,5,33,0.25
2013-2-20,37,29,24,24,13,8,61,51,43,30.00,29.73,32,12,42,0.01
2013-2-21,34,27,23,15,11,8,57,51,43,30.05,29.98,31,11,34,0.00
2013-2-22,36,32,21,29,22,12,77,66,55,30.40,30.25,11,3,13,0.00
2013-2-23,44,39,35,42,36,28,92,90,77,30.26,29.78,19,5,22,0.36
2013-2-24,46,38,32,36,30,20,92,74,54,29.98,29.74,26,7,28,0.02
2013-2-25,43,36,27,28,24,20,76,63,50,30.22,29.98,12,3,15,0.00
2013-2-26,43,36,27,33,29,22,86,74,63,30.27,29.82,26,6,27,0.30
2013-2-27,48,42,37,45,37,33,92,84,68,29.85,29.49,23,6,26,1.22
2013-2-28,47,42,35,36,32,26,83,69,50,29.63,29.54,16,4,18,0.00
2013-3-1,44,38,32,29,27,23,80,67,50,29.78,29.60,18,6,20,0.00
2013-3-2,38,34,30,24,22,19,72,61,53,29.79,29.69,19,6,20,0.00
2013-3-3,37,31,28,20,18,15,65,56,48,29.77,29.67,21,8,24,0.00
2013-3-4,41,33,26,21,18,14,63,54,42,29.92,29.77,26,10,34,0.00
2013-3-5,50,38,30,27,23,19,68,55,39,30.02,29.92,22,4,22,0.00
2013-3-6,41,39,35,33,30,26,79,70,60,29.95,29.80,31,10,38,0.04
2013-3-7,39,36,32,32,28,24,85,72,60,30.08,29.90,33,6,33,0.11
2013-3-8,41,34,30,36,29,26,90,84,63,30.19,30.00,15,3,15,0.35
2013-3-9,57,42,30,27,21,13,71,46,20,30.31,30.17,13,2,14,0.00
2013-3-10,48,38,28,35,30,21,87,74,54,30.38,30.29,15,3,15,0.00
2013-3-11,56,45,33,46,39,29,86,79,58,30.32,30.07,17,3,18,0.00
2013-3-12,57,53,44,54,47,35,90,81,68,30.07,29.65,27,7,27,0.82
2013-3-13,50,42,36,35,29,22,83,62,38,29.89,29.80,27,6,29,0.00
2013-3-14,41,34,29,22,13,6,56,42,27,29.97,29.85,34,12,34,0.00
2013-3-15,47,37,27,29,19,9,55,47,36,29.99,29.71,24,7,26,0.00
2013-3-16,44,35,32,29,25,19,84,68,50,29.91,29.76,10,1,13,0.07
2013-3-17,36,32,28,28,19,13,83,58,41,30.29,29.90,18,4,22,0.00
2013-3-18,35,31,26,30,19,8,89,63,44,30.39,29.98,23,6,26,0.40
2013-3-19,48,38,33,35,31,14,91,76,37,29.98,29.69,30,7,34,0.66
2013-3-20,45,38,31,21,18,16,58,45,31,29.90,29.77,26,8,30,0.00
2013-3-21,39,33,29,25,17,11,78,52,35,29.83,29.63,20,5,21,0.00
2013-3-22,41,33,26,21,17,12,65,52,38,29.89,29.74,25,8,29,0.00
2013-3-23,45,37,30,22,19,17,62,48,35,29.94,29.82,29,10,33,0.00
2013-3-24,46,38,30,25,20,16,60,48,36,29.95,29.69,19,4,26,0.00
2013-3-25,39,36,32,33,28,24,87,74,57,29.69,29.46,21,5,23,0.26
2013-3-26,50,41,33,32,29,24,85,63,39,29.86,29.60,22,3,22,0.00
2013-3-27,51,41,32,29,26,21,68,55,31,29.99,29.86,24,6,25,0.00
2013-3-28,49,42,33,29,28,25,75,57,43,30.10,29.96,20,6,20,0.00
2013-3-29,53,44,32,29,27,24,75,53,35,30.15,30.05,22,4,22,0.00
2013-3-30,58,46,33,31,25,19,75,47,23,30.17,30.05,19,3,20,0.00
2013-3-31,57,45,34,42,32,21,90,63,36,30.12,29.67,23,4,23,0.13
2013-4-1,61,48,37,45,35,11,92,66,32,29.91,29.62,35,8,35,0.01
2013-4-2,43,36,29,16,12,10,52,38,27,30.08,29.91,32,8,32,0.00
2013-4-3,45,37,30,16,12,8,46,36,26,30.30,30.08,35,8,35,0.00
2013-4-4,53,41,29,24,18,11,54,40,29,30.39,30.07,14,4,18,0.00
2013-4-5,63,48,39,31,24,17,69,42,20,30.08,29.70,24,5,27,0.00
2013-4-6,53,42,34,26,16,8,60,37,19,30.30,29.99,19,5,21,0.00
2013-4-7,64,49,36,42,33,25,72,55,30,30.30,29.98,18,4,22,0.00
2013-4-8,75,60,45,46,43,39,80,56,30,30.06,29.96,16,3,16,0.00
2013-4-9,82,68,50,53,44,35,80,47,19,29.97,29.87,29,5,35,0.00
2013-4-10,78,65,55,55,50,43,91,58,40,29.93,29.78,23,4,33,0.51
2013-4-11,60,55,46,58,50,40,95,85,70,30.02,29.75,24,5,24,0.02
2013-4-12,48,43,41,41,39,38,90,86,72,29.99,29.70,27,9,33,0.99
2013-4-13,58,48,37,42,36,33,90,67,42,29.97,29.73,19,3,20,0.02
2013-4-14,59,51,40,41,33,26,85,54,32,30.20,29.96,31,5,31,0.00
2013-4-15,55,49,44,40,32,26,76,52,43,30.36,30.19,16,5,18,0.00
2013-4-16,72,58,46,55,47,40,81,70,52,30.36,30.10,19,3,23,0.00
2013-4-17,73,62,52,54,43,31,83,53,22,30.28,30.08,13,3,16,0.01
2013-4-18,57,52,46,54,44,38,89,74,62,30.33,30.07,17,4,19,0.02
2013-4-19,78,67,54,63,59,52,91,77,59,30.08,29.63,25,4,27,0.24
2013-4-20,58,52,46,52,34,24,84,54,34,30.29,29.68,27,10,29,0.16
2013-4-21,54,44,35,28,22,18,58,43,27,30.61,30.29,18,3,19,0.00
2013-4-22,50,42,34,36,30,27,78,63,44,30.64,30.46,28,6,33,0.00
2013-4-23,51,44,40,40,35,30,81,69,61,30.46,30.10,14,4,16,0.00
2013-4-24,74,55,34,53,44,30,87,68,46,30.11,29.79,18,3,19,0.00
2013-4-25,64,55,45,52,32,24,75,44,24,30.26,29.84,24,6,30,0.00
2013-4-26,66,54,40,35,30,23,70,44,21,30.39,30.26,16,2,18,0.00
2013-4-27,70,56,39,33,30,26,65,39,21,30.42,30.26,16,2,17,0.00
2013-4-28,71,57,41,42,35,27,74,47,28,30.30,30.17,19,3,22,0.00
2013-4-29,56,53,51,48,46,40,86,78,56,30.23,30.16,16,3,17,0.19
2013-4-30,61,54,43,47,40,27,86,63,29,30.32,30.19,21,4,23,0.01
2013-5-1,64,51,35,42,37,27,86,61,27,30.47,30.32,20,4,21,0.00
2013-5-2,70,56,37,46,40,34,90,60,35,30.46,30.31,11,2,13,0.00
2013-5-3,62,54,44,44,40,35,80,59,44,30.44,30.34,17,4,20,0.00
2013-5-4,65,52,39,46,40,36,90,67,43,30.36,30.23,16,3,16,0.00
2013-5-5,57,49,41,42,39,35,83,68,55,30.28,30.22,17,4,17,0.00
2013-5-6,63,54,46,50,45,40,83,73,61,30.25,30.14,14,3,14,0.00
2013-5-7,68,56,44,57,50,41,90,79,68,30.16,30.07,19,4,21,0.00
2013-5-8,66,59,55,59,55,49,92,86,75,30.08,29.95,17,4,20,0.69
2013-5-9,68,59,52,57,53,48,91,81,64,29.99,29.89,14,2,16,0.24
2013-5-10,81,67,53,60,55,49,91,68,39,30.00,29.87,15,2,17,0.18
2013-5-11,74,65,61,63,59,54,90,83,65,29.90,29.68,23,2,28,0.04
2013-5-12,65,59,50,59,41,25,89,55,24,29.95,29.66,27,7,36,0.02
2013-5-13,54,47,40,32,29,25,69,51,34,30.11,29.95,21,5,25,0.01
2013-5-14,60,48,34,32,28,23,78,49,25,30.15,30.02,21,3,21,0.03
2013-5-15,75,59,40,57,46,31,73,62,47,30.07,29.67,17,2,21,0.02
2013-5-16,81,68,56,60,55,46,86,66,40,29.83,29.70,19,2,19,0.00
2013-5-17,73,62,50,53,42,38,75,50,31,30.18,29.83,16,2,18,0.00
2013-5-18,64,58,52,54,49,43,77,71,58,30.30,30.18,11,2,12,0.00
2013-5-19,58,56,54,54,53,50,91,88,76,30.29,30.16,11,3,16,0.51
2013-5-20,78,67,56,68,61,54,92,83,68,30.18,29.96,15,2,15,0.00
2013-5-21,86,74,62,72,66,58,89,76,62,29.97,29.84,16,2,17,0.00
2013-5-22,81,72,60,70,64,55,84,77,70,29.93,29.81,11,1,16,0.00
2013-5-23,81,73,68,69,65,62,80,76,64,29.89,29.74,23,4,23,0.07
2013-5-24,68,55,44,62,49,38,87,82,75,29.97,29.68,23,5,23,0.76
2013-5-25,57,50,43,43,39,34,83,68,47,30.03,29.92,36,9,36,0.11
2013-5-26,68,56,46,39,36,31,68,49,29,30.20,29.99,27,8,28,0.00
2013-5-27,73,58,40,44,38,34,78,51,26,30.26,30.12,20,3,26,0.00
2013-5-28,65,57,49,55,49,41,88,76,55,30.22,30.11,10,1,10,0.37
2013-5-29,88,71,58,72,62,55,90,75,46,30.13,29.99,17,2,18,0.01
2013-5-30,91,81,70,68,64,61,75,59,39,30.13,30.04,18,3,18,0.00
2013-5-31,94,82,67,70,63,57,78,56,33,30.12,29.97,14,2,14,0.00
2013-6-1,91,80,67,70,66,60,81,62,42,30.01,29.88,21,2,23,0.00
2013-6-2,87,80,71,70,66,64,78,65,48,29.90,29.76,24,4,27,0.33
2013-6-3,80,71,66,67,64,54,86,78,65,29.87,29.77,15,1,15,0.66
2013-6-4,75,65,56,55,45,42,67,49,33,30.10,29.87,18,4,20,0.00
2013-6-5,72,62,47,52,45,39,77,56,40,30.20,30.10,15,3,18,0.00
2013-6-6,70,62,53,58,54,48,86,77,57,30.14,29.99,17,4,18,0.22
2013-6-7,63,61,59,59,56,55,87,86,83,30.00,29.58,18,6,22,3.23
2013-6-8,76,67,57,64,59,52,86,76,64,30.05,29.57,15,4,19,0.30
2013-6-9,82,70,57,60,57,52,84,65,45,30.17,30.05,14,2,16,0.00
2013-6-10,68,66,63,62,59,57,85,78,71,30.14,29.80,18,3,22,1.35
2013-6-11,80,73,66,67,64,60,85,74,63,29.80,29.63,24,6,28,0.05
2013-6-12,80,71,61,60,56,52,75,62,43,29.84,29.71,21,5,22,0.00
2013-6-13,66,62,56,57,54,49,79,74,72,29.84,29.43,23,4,23,1.21
2013-6-14,71,59,53,57,50,45,79,72,58,29.90,29.51,18,3,20,0.47
2013-6-15,80,68,54,59,53,48,82,63,40,30.01,29.89,15,2,16,0.01
2013-6-16,82,70,57,65,57,49,76,64,42,29.99,29.77,24,3,26,0.00
2013-6-17,85,74,63,67,61,55,77,65,50,29.92,29.82,16,2,19,0.00
2013-6-18,82,70,63,68,59,54,76,69,61,29.89,29.80,12,1,15,0.15
2013-6-19,78,67,58,55,51,46,74,57,33,30.16,29.87,14,2,15,0.01
2013-6-20,71,61,54,56,49,44,70,66,58,30.26,30.16,9,1,11,0.00
2013-8-28,83,74,68,63,48,42,53,40,34,29.88,29.83,5,0,15,0.00
2013-8-29,79,72,68,62,50,44,58,47,40,30.03,29.87,4,1,10,0.00
2013-8-30,82,74,68,67,53,42,61,47,40,30.02,29.85,8,3,20,0.01
2013-8-31,86,78,70,69,56,45,58,47,39,29.87,29.77,6,2,14,0.00
2013-9-1,85,76,72,68,53,46,57,44,38,29.85,29.77,7,0,15,0.00
2013-9-2,79,74,71,60,50,45,54,42,36,29.79,29.70,3,0,10,0.00
2013-9-3,80,74,62,63,54,36,62,51,37,29.88,29.71,17,3,19,0.01
2013-9-4,79,68,57,61,49,34,60,50,38,30.00,29.88,19,3,19,0.00
2013-9-5,77,66,55,59,45,33,60,46,34,30.14,29.92,16,2,18,0.00
2013-9-6,72,60,47,48,40,26,60,49,34,30.24,30.13,11,1,12,0.00
2013-9-7,77,63,47,54,42,27,60,47,35,30.13,29.90,13,2,16,0.00
2013-9-8,80,70,61,63,50,36,58,49,37,30.07,29.82,23,3,23,0.00
2013-9-9,73,63,51,56,47,32,60,56,45,30.23,30.07,12,2,13,0.00
2013-9-10,86,75,66,68,51,38,56,43,34,30.16,30.04,16,3,19,0.00
2013-9-11,94,82,73,76,58,42,57,45,32,30.11,29.96,15,2,16,0.00
2013-9-12,86,76,68,67,51,41,58,42,31,29.98,29.67,26,2,29,0.52
2013-9-13,75,67,58,58,48,40,58,50,38,29.85,29.64,20,4,21,0.08
2013-9-14,64,56,47,48,40,27,60,55,43,30.13,29.85,19,4,20,0.00
2013-9-15,71,57,42,51,39,25,61,51,42,30.22,30.07,15,2,15,0.00
2013-9-16,71,61,54,54,41,30,59,48,38,30.23,30.03,18,1,18,0.05
2013-9-17,70,53,42,44,37,26,60,54,37,30.42,30.23,18,2,20,0.10
2013-9-18,72,72,72,44,44,44,37,37,37,30.34,30.18,0,0,0,0.00
2013-9-19,78,73,72,56,47,44,48,40,37,30.19,30.03,2,0,3,0.27
2013-9-20,82,73,62,60,57,55,85,58,44,30.12,29.97,14,2,16,0.06
2013-9-21,81,67,52,67,60,50,97,80,45,30.00,29.65,16,2,18,0.20
2013-9-22,68,63,55,66,52,41,96,70,44,29.91,29.64,22,4,24,0.55
2013-9-23,66,55,44,45,43,40,92,64,44,30.04,29.91,19,4,20,0.00
2013-9-24,74,56,40,48,44,38,96,69,38,30.06,29.87,15,3,19,0.00
2013-9-25,74,58,43,54,47,42,95,70,41,29.96,29.86,10,1,11,0.00
2013-9-26,70,59,48,58,54,46,97,84,62,30.09,29.93,14,1,14,0.00
2013-9-27,69,61,52,56,53,48,96,76,49,30.25,30.08,9,1,10,0.00
2013-9-28,74,62,52,54,52,48,94,73,42,30.31,30.22,13,2,14,0.00
2013-9-29,70,59,48,58,52,46,97,81,58,30.22,30.07,12,1,12,0.00
2013-9-30,76,60,46,56,51,45,97,75,41,30.08,29.96,10,1,12,0.00
2013-10-1,81,64,52,60,55,50,95,75,48,30.01,29.89,13,1,14,0.01
2013-10-2,84,70,57,62,59,54,92,72,46,30.01,29.90,21,3,21,0.00
2013-10-3,79,68,55,60,57,50,97,72,40,30.11,30.00,11,0,12,0.00
2013-10-4,86,71,58,67,62,56,95,75,48,30.06,29.95,15,2,15,0.00
2013-10-5,78,70,65,66,64,63,95,84,65,30.08,29.99,11,1,11,0.00
2013-10-6,70,67,65,68,65,63,97,94,91,30.07,30.00,15,4,15,0.00
2013-10-7,80,67,58,72,64,51,97,90,68,30.00,29.75,28,4,35,0.45
2013-10-8,68,57,46,52,47,42,97,71,40,30.31,29.99,15,1,16,0.00
2013-10-9,62,56,50,50,47,41,78,70,63,30.37,30.26,16,3,19,0.00
2013-10-10,62,58,52,56,52,47,90,81,73,30.26,30.05,15,4,18,0.04
2013-10-11,68,63,57,61,58,54,92,83,68,30.07,29.98,19,5,19,0.07
2013-10-12,72,65,59,58,51,39,77,61,47,30.25,30.04,21,6,24,0.00
2013-10-13,66,60,55,55,52,49,83,75,61,30.36,30.24,16,4,20,0.00
2013-10-14,68,56,46,52,49,44,96,78,52,30.35,30.23,10,1,12,0.00
2013-10-15,70,56,45,55,46,26,97,75,21,30.25,30.10,14,2,16,0.00
2013-10-16,68,60,49,60,56,48,96,85,70,30.10,29.91,10,1,10,0.00
2013-10-17,74,66,61,64,61,59,96,85,62,29.91,29.68,11,1,11,0.03
2013-10-18,68,61,49,63,47,42,89,63,43,29.98,29.67,26,7,27,0.00
2013-10-19,64,53,41,55,46,40,95,77,51,29.98,29.74,11,1,11,0.01
2013-10-20,63,54,43,55,41,33,93,64,33,30.06,29.75,20,5,21,0.01
2013-10-21,68,53,40,45,40,36,91,65,33,30.15,29.97,15,2,17,0.00
2013-10-22,66,53,42,51,46,39,96,77,56,29.97,29.75,20,2,21,0.00
2013-10-23,56,46,37,41,38,35,94,74,49,29.81,29.60,17,2,21,0.00
2013-10-24,53,44,36,36,32,26,91,64,37,30.02,29.76,25,5,30,0.00
2013-10-25,54,44,35,35,31,28,82,63,37,30.23,30.02,24,4,28,0.00
2013-10-26,55,44,30,34,31,28,95,64,37,30.23,29.89,22,3,23,0.00
2013-10-27,58,50,40,35,33,31,71,53,37,30.12,29.85,22,5,25,0.00
2013-10-28,62,47,32,36,33,29,91,62,35,30.30,30.12,18,2,21,0.00
2013-10-29,59,48,39,38,35,32,87,62,41,30.41,30.30,11,1,11,0.00
2013-10-30,60,49,38,52,44,34,90,81,68,30.35,30.17,10,0,13,0.00
2013-10-31,69,60,50,62,56,48,94,86,72,30.22,29.80,19,1,20,0.07
2013-11-1,70,65,56,64,59,54,95,81,58,29.80,29.55,34,5,44,0.32
2013-11-2,68,57,49,54,48,40,97,73,44,29.78,29.61,18,2,20,0.00
2013-11-3,52,45,34,43,34,21,90,66,35,30.46,29.78,19,4,20,0.00
2013-11-4,48,38,29,27,20,15,76,52,30,30.65,30.46,16,2,18,0.00
2013-11-5,56,46,33,43,36,25,87,69,54,30.64,30.47,12,2,13,0.00
2013-11-6,65,52,38,53,45,36,96,79,53,30.49,30.05,12,1,14,0.00
2013-11-7,63,54,39,58,49,32,94,83,60,30.05,29.75,23,4,26,0.10
2013-11-8,50,43,38,37,30,25,81,62,40,30.22,29.94,32,6,32,0.00
2013-11-9,51,42,32,34,29,26,81,61,38,30.30,29.98,15,2,17,0.00
2013-11-10,60,48,38,38,33,28,83,58,37,30.06,29.82,35,8,43,0.00
2013-11-11,54,46,40,35,29,26,59,51,39,30.22,29.95,26,6,26,0.00
2013-11-12,51,39,30,37,25,17,85,58,46,30.30,29.92,22,6,27,0.01
2013-11-13,40,32,25,20,16,10,73,54,30,30.38,30.28,28,4,28,0.00
2013-11-14,53,40,30,22,19,14,64,45,22,30.28,30.17,21,6,27,0.00
2013-11-15,58,44,31,33,27,21,80,54,28,30.26,30.15,10,1,12,0.00
2013-11-16,61,49,38,47,41,28,96,76,50,30.33,30.22,11,1,12,0.03
2013-11-17,62,55,47,58,53,45,96,93,88,30.25,29.77,9,1,10,0.02
2013-11-18,65,60,51,63,41,26,95,54,28,29.78,29.59,32,9,43,0.17
2013-11-19,51,44,35,29,25,22,58,47,41,30.34,29.78,27,9,31,0.00
2013-11-20,45,34,26,22,18,6,78,54,20,30.61,30.34,8,1,17,0.00
2013-11-21,45,33,28,29,20,18,67,59,54,30.61,30.58,9,1,10,0.00
2013-11-22,58,53,49,51,48,41,95,84,74,30.38,29.90,16,4,18,0.08
2013-11-23,53,42,31,49,26,11,93,55,35,30.04,29.90,31,10,35,0.01
2013-11-24,30,26,23,13,4,2,47,39,31,30.40,30.02,35,12,44,0.00
2013-11-25,36,28,20,17,12,6,65,51,40,30.50,30.33,17,4,17,0.00
2013-11-26,53,37,32,52,28,17,97,72,51,30.34,29.72,20,2,22,0.76
2013-11-27,63,47,34,62,43,20,97,87,56,29.77,29.36,32,9,32,2.09
2013-11-28,36,32,27,24,15,10,71,51,35,30.47,29.77,31,9,33,0.00
2013-11-29,40,32,26,23,20,17,80,62,46,30.73,30.46,15,2,18,0.00
2013-11-30,37,31,24,30,22,13,79,68,55,30.75,30.36,12,2,14,0.00
2013-12-1,49,40,30,34,30,27,89,69,53,30.36,30.00,12,1,12,0.00
2013-12-2,52,41,35,36,32,29,92,69,46,30.00,29.87,7,0,8,0.00
2013-12-3,54,42,34,38,35,32,95,77,49,30.00,29.87,13,1,13,0.00
2013-12-4,50,43,33,46,39,31,95,85,73,30.12,30.00,7,1,9,0.00
2013-12-5,59,53,48,57,52,46,97,94,89,30.11,29.92,11,1,12,0.01
2013-12-6,62,49,38,61,47,36,98,94,87,30.15,29.85,18,3,22,0.87
2013-12-7,41,36,31,37,29,17,96,75,56,30.51,30.08,20,4,21,0.15
2013-12-8,32,30,26,30,21,16,95,72,56,30.58,30.34,10,2,12,0.00
2013-12-9,37,34,31,36,33,30,97,95,93,30.34,29.96,16,4,18,0.48
2013-12-10,34,32,27,33,30,19,97,92,72,30.15,29.89,15,3,18,0.08
2013-12-11,33,28,23,20,18,14,76,66,51,30.34,30.15,27,6,27,0.05
2013-12-12,28,24,20,17,10,4,70,54,39,30.37,30.17,18,5,21,0.00
2013-12-13,34,25,17,20,13,8,73,61,47,30.33,30.14,24,4,33,0.01
2013-12-14,31,26,22,30,22,19,96,84,68,30.47,29.74,21,5,22,0.00
2013-12-15,40,34,30,34,29,21,97,82,59,29.85,29.50,26,7,30,0.38
2013-12-16,32,26,18,24,14,8,80,60,42,30.23,29.84,27,7,29,0.01
2013-12-17,30,25,20,28,22,14,94,86,70,30.22,29.92,10,2,12,0.00
2013-12-18,37,26,20,25,20,17,89,79,55,30.18,29.92,16,4,25,0.03
2013-12-19,45,34,22,31,26,18,88,72,51,30.19,30.03,14,2,14,0.09
2013-12-20,53,41,31,38,33,29,93,73,48,30.10,29.96,12,1,14,0.00
2013-12-21,64,51,39,55,46,36,97,84,67,30.00,29.89,13,1,13,0.01
2013-12-22,70,66,60,64,60,56,90,81,73,29.95,29.79,26,7,33,0.02
2013-12-23,62,56,41,60,53,31,97,91,69,30.16,29.88,30,3,33,0.64
2013-12-24,41,35,26,31,23,10,92,61,46,30.35,30.09,24,7,27,0.00
2013-12-25,29,25,19,16,10,7,63,54,44,30.53,30.35,22,4,24,0.00
2013-12-26,36,30,24,28,23,16,83,75,63,30.43,30.17,16,2,20,0.00
2013-12-27,42,32,25,24,22,18,81,66,45,30.37,30.26,22,3,24,0.00
2013-12-28,57,41,24,30,27,21,90,60,34,30.29,30.07,25,4,27,0.00
2013-12-29,46,42,38,45,36,28,96,80,57,30.07,29.41,22,3,26,1.37
2013-12-30,46,36,23,38,28,11,93,73,54,30.18,29.70,23,5,26,0.00
2013-12-31,32,26,19,27,15,10,87,63,49,30.30,30.07,24,4,29,0.00
2014-1-1,33,29,23,23,17,10,67,60,53,30.41,30.23,13,2,19,0.00
2014-1-2,33,27,17,25,22,15,92,81,65,30.23,29.65,20,6,22,0.00